Year,Month,Day,Hour,Minute,Value (Times are PST for windgust in km/hr)
2018,02,26,00,02,1.60
2018,02,26,00,16,1.60
2018,02,26,00,17,3.20
2018,02,26,00,18,3.20
2018,02,26,00,19,3.20
2018,02,26,00,20,3.20
2018,02,26,00,21,1.60
2018,02,26,00,24,3.20
2018,02,26,00,25,1.60
2018,02,26,00,27,1.60
2018,02,26,00,37,3.20
2018,02,26,00,38,1.60
2018,02,26,00,41,1.60
2018,02,26,00,42,1.60
2018,02,26,01,05,1.60
2018,02,26,07,11,1.60
2018,02,26,07,12,3.20
2018,02,26,07,13,3.20
2018,02,26,07,14,3.20
2018,02,26,07,15,3.20
2018,02,26,07,16,3.20
2018,02,26,07,17,3.20
2018,02,26,07,18,3.20
2018,02,26,07,57,3.20
2018,02,26,07,58,3.20
2018,02,26,08,00,1.60
2018,02,26,08,02,1.60
2018,02,26,08,31,1.60
2018,02,26,08,33,1.60
2018,02,26,08,34,3.20
2018,02,26,08,35,3.20
2018,02,26,08,37,4.80
2018,02,26,08,38,4.80
2018,02,26,08,39,4.80
2018,02,26,08,40,6.40
2018,02,26,08,41,4.80
2018,02,26,08,42,3.20
2018,02,26,08,43,4.80
2018,02,26,08,44,3.20
2018,02,26,08,45,3.20
2018,02,26,08,48,4.80
2018,02,26,08,49,4.80
2018,02,26,08,50,3.20
2018,02,26,08,51,3.20
2018,02,26,08,52,1.60
2018,02,26,08,53,4.80
2018,02,26,08,54,3.20
2018,02,26,08,55,1.60
2018,02,26,08,56,3.20
2018,02,26,08,57,3.20
2018,02,26,08,58,4.80
2018,02,26,08,59,6.40
2018,02,26,09,00,3.20
2018,02,26,09,01,3.20
2018,02,26,09,02,3.20
2018,02,26,09,03,3.20
2018,02,26,09,04,4.80
2018,02,26,09,05,4.80
2018,02,26,09,06,6.40
2018,02,26,09,07,4.80
2018,02,26,09,08,1.60
2018,02,26,09,09,4.80
2018,02,26,09,10,3.20
2018,02,26,09,11,3.20
2018,02,26,09,12,1.60
2018,02,26,09,13,3.20
2018,02,26,09,14,1.60
2018,02,26,09,15,4.80
2018,02,26,09,16,3.20
2018,02,26,09,18,3.20
2018,02,26,09,20,3.20
2018,02,26,09,21,4.80
2018,02,26,09,22,3.20
2018,02,26,09,23,4.80
2018,02,26,09,24,3.20
2018,02,26,09,25,4.80
2018,02,26,09,26,4.80
2018,02,26,09,28,3.20
2018,02,26,09,29,4.80
2018,02,26,09,30,4.80
2018,02,26,09,31,3.20
2018,02,26,09,32,6.40
2018,02,26,09,33,6.40
2018,02,26,09,34,4.80
2018,02,26,09,35,4.80
2018,02,26,09,36,4.80
2018,02,26,09,37,4.80
2018,02,26,09,38,6.40
2018,02,26,09,39,1.60
2018,02,26,09,40,3.20
2018,02,26,09,41,3.20
2018,02,26,09,42,1.60
2018,02,26,09,43,4.80
2018,02,26,09,44,3.20
2018,02,26,09,45,4.80
2018,02,26,09,46,4.80
2018,02,26,09,47,4.80
2018,02,26,09,48,3.20
2018,02,26,09,49,4.80
2018,02,26,09,50,3.20
2018,02,26,09,51,1.60
2018,02,26,09,53,3.20
2018,02,26,09,54,4.80
2018,02,26,09,55,1.60
2018,02,26,09,56,3.20
2018,02,26,09,57,1.60
2018,02,26,09,58,3.20
2018,02,26,09,59,3.20
2018,02,26,10,00,4.80
2018,02,26,10,01,4.80
2018,02,26,10,02,4.80
2018,02,26,10,03,1.60
2018,02,26,10,04,3.20
2018,02,26,10,05,4.80
2018,02,26,10,06,1.60
2018,02,26,10,07,1.60
2018,02,26,10,08,3.20
2018,02,26,10,09,1.60
2018,02,26,10,10,3.20
2018,02,26,10,11,1.60
2018,02,26,10,12,3.20
2018,02,26,10,14,1.60
2018,02,26,10,15,1.60
2018,02,26,10,16,4.80
2018,02,26,10,17,6.40
2018,02,26,10,18,1.60
2018,02,26,10,19,3.20
2018,02,26,10,20,4.80
2018,02,26,10,21,3.20
2018,02,26,10,22,3.20
2018,02,26,10,23,3.20
2018,02,26,10,25,3.20
2018,02,26,10,26,1.60
2018,02,26,10,27,3.20
2018,02,26,10,28,3.20
2018,02,26,10,29,3.20
2018,02,26,10,30,3.20
2018,02,26,10,31,1.60
2018,02,26,10,32,3.20
2018,02,26,10,33,3.20
2018,02,26,10,34,3.20
2018,02,26,10,35,4.80
2018,02,26,10,36,3.20
2018,02,26,10,37,3.20
2018,02,26,10,47,1.60
2018,02,26,10,48,1.60
2018,02,26,10,49,1.60
2018,02,26,10,50,3.20
2018,02,26,10,51,1.60
2018,02,26,10,52,3.20
2018,02,26,10,53,4.80
2018,02,26,10,54,4.80
2018,02,26,10,56,1.60
2018,02,26,10,57,4.80
2018,02,26,10,58,3.20
2018,02,26,10,59,3.20
2018,02,26,11,00,4.80
2018,02,26,11,01,1.60
2018,02,26,11,03,1.60
2018,02,26,11,06,1.60
2018,02,26,11,07,3.20
2018,02,26,11,08,4.80
2018,02,26,11,09,4.80
2018,02,26,11,11,4.80
2018,02,26,11,12,3.20
2018,02,26,11,13,1.60
2018,02,26,11,14,3.20
2018,02,26,11,16,3.20
2018,02,26,11,17,4.80
2018,02,26,11,18,6.40
2018,02,26,11,19,4.80
2018,02,26,11,20,3.20
2018,02,26,11,21,3.20
2018,02,26,11,22,3.20
2018,02,26,11,23,3.20
2018,02,26,11,24,4.80
2018,02,26,11,25,3.20
2018,02,26,11,26,3.20
2018,02,26,11,27,1.60
2018,02,26,11,28,1.60
2018,02,26,11,29,1.60
2018,02,26,11,38,1.60
2018,02,26,11,39,3.20
2018,02,26,11,40,6.40
2018,02,26,11,41,4.80
2018,02,26,11,49,1.60
2018,02,26,11,50,1.60
2018,02,26,11,51,1.60
2018,02,26,11,54,6.40
2018,02,26,11,55,4.80
2018,02,26,11,56,3.20
2018,02,26,11,57,6.40
2018,02,26,11,58,8.10
2018,02,26,11,59,6.40
2018,02,26,12,00,4.80
2018,02,26,12,01,3.20
2018,02,26,12,02,4.80
2018,02,26,12,03,3.20
2018,02,26,12,04,1.60
2018,02,26,12,07,1.60
2018,02,26,12,08,4.80
2018,02,26,12,09,4.80
2018,02,26,12,10,4.80
2018,02,26,12,11,6.40
2018,02,26,12,12,4.80
2018,02,26,12,13,1.60
2018,02,26,12,14,4.80
2018,02,26,12,15,4.80
2018,02,26,12,17,3.20
2018,02,26,12,18,3.20
2018,02,26,12,19,3.20
2018,02,26,12,20,3.20
2018,02,26,12,21,3.20
2018,02,26,12,22,1.60
2018,02,26,12,23,1.60
2018,02,26,12,24,1.60
2018,02,26,12,25,4.80
2018,02,26,12,26,4.80
2018,02,26,12,27,3.20
2018,02,26,12,28,1.60
2018,02,26,12,32,1.60
2018,02,26,12,34,1.60
2018,02,26,12,42,1.60
2018,02,26,12,43,1.60
2018,02,26,12,44,1.60
2018,02,26,12,45,3.20
2018,02,26,12,46,3.20
2018,02,26,12,48,4.80
2018,02,26,12,49,1.60
2018,02,26,12,50,3.20
2018,02,26,12,51,8.10
2018,02,26,12,52,6.40
2018,02,26,12,53,8.10
2018,02,26,12,54,4.80
2018,02,26,12,55,4.80
2018,02,26,12,56,1.60
2018,02,26,12,58,3.20
2018,02,26,12,59,4.80
2018,02,26,13,00,6.40
2018,02,26,13,01,11.30
2018,02,26,13,02,11.30
2018,02,26,13,03,9.60
2018,02,26,13,04,9.60
2018,02,26,13,05,12.90
2018,02,26,13,06,8.10
2018,02,26,13,07,6.40
2018,02,26,13,08,9.60
2018,02,26,13,09,4.80
2018,02,26,13,10,8.10
2018,02,26,13,11,4.80
2018,02,26,13,12,8.10
2018,02,26,13,13,8.10
2018,02,26,13,14,4.80
2018,02,26,13,15,11.30
2018,02,26,13,16,11.30
2018,02,26,13,17,8.10
2018,02,26,13,18,3.20
2018,02,26,13,19,9.60
2018,02,26,13,20,4.80
2018,02,26,13,21,3.20
2018,02,26,13,22,6.40
2018,02,26,13,23,14.50
2018,02,26,13,24,8.10
2018,02,26,13,25,11.30
2018,02,26,13,26,9.60
2018,02,26,13,27,8.10
2018,02,26,13,28,9.60
2018,02,26,13,29,11.30
2018,02,26,13,30,14.50
2018,02,26,13,31,9.60
2018,02,26,13,32,11.30
2018,02,26,13,33,12.90
2018,02,26,13,34,11.30
2018,02,26,13,35,14.50
2018,02,26,13,36,11.30
2018,02,26,13,37,6.40
2018,02,26,13,38,8.10
2018,02,26,13,39,16.10
2018,02,26,13,40,12.90
2018,02,26,13,41,17.70
2018,02,26,13,42,14.50
2018,02,26,13,43,9.60
2018,02,26,13,44,16.10
2018,02,26,13,45,11.30
2018,02,26,13,46,12.90
2018,02,26,13,47,14.50
2018,02,26,13,48,16.10
2018,02,26,13,49,9.60
2018,02,26,13,50,8.10
2018,02,26,13,51,11.30
2018,02,26,13,52,14.50
2018,02,26,13,53,9.60
2018,02,26,13,54,14.50
2018,02,26,13,55,11.30
2018,02,26,13,56,3.20
2018,02,26,13,57,12.90
2018,02,26,13,58,17.70
2018,02,26,13,59,6.40
2018,02,26,14,00,6.40
2018,02,26,14,01,9.60
2018,02,26,14,02,8.10
2018,02,26,14,03,9.60
2018,02,26,14,04,11.30
2018,02,26,14,05,11.30
2018,02,26,14,06,4.80
2018,02,26,14,07,3.20
2018,02,26,14,08,6.40
2018,02,26,14,09,6.40
2018,02,26,14,10,6.40
2018,02,26,14,11,8.10
2018,02,26,14,12,9.60
2018,02,26,14,13,8.10
2018,02,26,14,14,9.60
2018,02,26,14,15,9.60
2018,02,26,14,16,11.30
2018,02,26,14,17,8.10
2018,02,26,14,18,4.80
2018,02,26,14,19,6.40
2018,02,26,14,20,9.60
2018,02,26,14,21,8.10
2018,02,26,14,22,12.90
2018,02,26,14,23,16.10
2018,02,26,14,24,9.60
2018,02,26,14,25,8.10
2018,02,26,14,26,3.20
2018,02,26,14,27,4.80
2018,02,26,14,28,4.80
2018,02,26,14,29,6.40
2018,02,26,14,30,4.80
2018,02,26,14,31,6.40
2018,02,26,14,32,8.10
2018,02,26,14,33,9.60
2018,02,26,14,34,1.60
2018,02,26,14,35,9.60
2018,02,26,14,36,6.40
2018,02,26,14,37,11.30
2018,02,26,14,38,19.30
2018,02,26,14,39,19.30
2018,02,26,14,40,8.10
2018,02,26,14,41,6.40
2018,02,26,14,42,8.10
2018,02,26,14,43,3.20
2018,02,26,14,44,6.40
2018,02,26,14,45,8.10
2018,02,26,14,46,11.30
2018,02,26,14,47,14.50
2018,02,26,14,48,11.30
2018,02,26,14,49,8.10
2018,02,26,14,50,9.60
2018,02,26,14,51,16.10
2018,02,26,14,52,11.30
2018,02,26,14,53,8.10
2018,02,26,14,54,8.10
2018,02,26,14,55,6.40
2018,02,26,14,56,11.30
2018,02,26,14,57,11.30
2018,02,26,14,58,8.10
2018,02,26,14,59,9.60
2018,02,26,15,00,12.90
2018,02,26,15,01,11.30
2018,02,26,15,02,12.90
2018,02,26,15,03,16.10
2018,02,26,15,04,14.50
2018,02,26,15,05,8.10
2018,02,26,15,06,14.50
2018,02,26,15,07,8.10
2018,02,26,15,08,9.60
2018,02,26,15,09,9.60
2018,02,26,15,10,9.60
2018,02,26,15,11,6.40
2018,02,26,15,12,4.80
2018,02,26,15,13,8.10
2018,02,26,15,14,3.20
2018,02,26,15,15,6.40
2018,02,26,15,16,9.60
2018,02,26,15,17,8.10
2018,02,26,15,18,11.30
2018,02,26,15,19,8.10
2018,02,26,15,20,9.60
2018,02,26,15,21,9.60
2018,02,26,15,22,4.80
2018,02,26,15,23,9.60
2018,02,26,15,24,4.80
2018,02,26,15,25,6.40
2018,02,26,15,26,9.60
2018,02,26,15,27,8.10
2018,02,26,15,28,11.30
2018,02,26,15,29,12.90
2018,02,26,15,30,11.30
2018,02,26,15,31,8.10
2018,02,26,15,32,14.50
2018,02,26,15,33,9.60
2018,02,26,15,34,6.40
2018,02,26,15,35,8.10
2018,02,26,15,36,3.20
2018,02,26,15,37,14.50
2018,02,26,15,38,6.40
2018,02,26,15,39,9.60
2018,02,26,15,40,11.30
2018,02,26,15,41,16.10
2018,02,26,15,42,16.10
2018,02,26,15,43,11.30
2018,02,26,15,44,11.30
2018,02,26,15,45,8.10
2018,02,26,15,46,8.10
2018,02,26,15,47,9.60
2018,02,26,15,48,14.50
2018,02,26,15,49,11.30
2018,02,26,15,50,8.10
2018,02,26,15,51,9.60
2018,02,26,15,52,8.10
2018,02,26,15,53,11.30
2018,02,26,15,54,14.50
2018,02,26,15,55,11.30
2018,02,26,15,56,16.10
2018,02,26,15,57,9.60
2018,02,26,15,58,14.50
2018,02,26,15,59,14.50
2018,02,26,16,00,12.90
2018,02,26,16,01,8.10
2018,02,26,16,02,6.40
2018,02,26,16,03,6.40
2018,02,26,16,04,6.40
2018,02,26,16,05,6.40
2018,02,26,16,06,9.60
2018,02,26,16,07,6.40
2018,02,26,16,08,11.30
2018,02,26,16,09,4.80
2018,02,26,16,10,16.10
2018,02,26,16,11,11.30
2018,02,26,16,12,9.60
2018,02,26,16,13,16.10
2018,02,26,16,14,11.30
2018,02,26,16,15,6.40
2018,02,26,16,16,14.50
2018,02,26,16,17,9.60
2018,02,26,16,18,11.30
2018,02,26,16,19,6.40
2018,02,26,16,20,4.80
2018,02,26,16,21,8.10
2018,02,26,16,22,8.10
2018,02,26,16,23,8.10
2018,02,26,16,24,9.60
2018,02,26,16,25,9.60
2018,02,26,16,26,9.60
2018,02,26,16,27,9.60
2018,02,26,16,28,14.50
2018,02,26,16,29,6.40
2018,02,26,16,30,6.40
2018,02,26,16,31,8.10
2018,02,26,16,32,8.10
2018,02,26,16,33,11.30
2018,02,26,16,34,16.10
2018,02,26,16,35,11.30
2018,02,26,16,36,14.50
2018,02,26,16,37,11.30
2018,02,26,16,38,6.40
2018,02,26,16,39,11.30
2018,02,26,16,40,6.40
2018,02,26,16,41,8.10
2018,02,26,16,42,8.10
2018,02,26,16,43,11.30
2018,02,26,16,44,17.70
2018,02,26,16,45,8.10
2018,02,26,16,46,4.80
2018,02,26,16,47,9.60
2018,02,26,16,48,11.30
2018,02,26,16,49,4.80
2018,02,26,16,50,12.90
2018,02,26,16,51,14.50
2018,02,26,16,52,11.30
2018,02,26,16,53,17.70
2018,02,26,16,54,4.80
2018,02,26,16,55,4.80
2018,02,26,16,56,11.30
2018,02,26,16,57,14.50
2018,02,26,16,58,16.10
2018,02,26,16,59,6.40
2018,02,26,17,00,6.40
2018,02,26,17,01,3.20
2018,02,26,17,02,8.10
2018,02,26,17,03,6.40
2018,02,26,17,04,8.10
2018,02,26,17,05,6.40
2018,02,26,17,06,4.80
2018,02,26,17,07,9.60
2018,02,26,17,08,9.60
2018,02,26,17,09,11.30
2018,02,26,17,10,6.40
2018,02,26,17,11,11.30
2018,02,26,17,12,19.30
2018,02,26,17,13,16.10
2018,02,26,17,14,11.30
2018,02,26,17,15,16.10
2018,02,26,17,16,9.60
2018,02,26,17,17,16.10
2018,02,26,17,18,6.40
2018,02,26,17,19,17.70
2018,02,26,17,20,9.60
2018,02,26,17,21,9.60
2018,02,26,17,22,9.60
2018,02,26,17,23,8.10
2018,02,26,17,24,8.10
2018,02,26,17,25,6.40
2018,02,26,17,26,6.40
2018,02,26,17,27,6.40
2018,02,26,17,28,11.30
2018,02,26,17,29,17.70
2018,02,26,17,30,14.50
2018,02,26,17,31,6.40
2018,02,26,17,32,11.30
2018,02,26,17,33,6.40
2018,02,26,17,34,11.30
2018,02,26,17,35,6.40
2018,02,26,17,36,3.20
2018,02,26,17,37,9.60
2018,02,26,17,38,4.80
2018,02,26,17,39,9.60
2018,02,26,17,40,6.40
2018,02,26,17,41,6.40
2018,02,26,17,42,6.40
2018,02,26,17,43,6.40
2018,02,26,17,44,8.10
2018,02,26,17,45,4.80
2018,02,26,17,46,8.10
2018,02,26,17,47,9.60
2018,02,26,17,48,6.40
2018,02,26,17,49,6.40
2018,02,26,17,50,8.10
2018,02,26,17,51,4.80
2018,02,26,17,52,9.60
2018,02,26,17,53,11.30
2018,02,26,17,54,6.40
2018,02,26,17,55,1.60
2018,02,26,17,56,4.80
2018,02,26,17,57,8.10
2018,02,26,17,58,8.10
2018,02,26,17,59,8.10
2018,02,26,18,00,9.60
2018,02,26,18,01,1.60
2018,02,26,18,02,6.40
2018,02,26,18,03,11.30
2018,02,26,18,04,6.40
2018,02,26,18,05,9.60
2018,02,26,18,06,8.10
2018,02,26,18,07,4.80
2018,02,26,18,08,6.40
2018,02,26,18,09,4.80
2018,02,26,18,10,8.10
2018,02,26,18,11,6.40
2018,02,26,18,12,4.80
2018,02,26,18,13,6.40
2018,02,26,18,14,8.10
2018,02,26,18,15,9.60
2018,02,26,18,16,8.10
2018,02,26,18,17,6.40
2018,02,26,18,18,6.40
2018,02,26,18,19,3.20
2018,02,26,18,21,4.80
2018,02,26,18,22,4.80
2018,02,26,18,23,3.20
2018,02,26,18,24,1.60
2018,02,26,18,25,8.10
2018,02,26,18,26,6.40
2018,02,26,18,27,4.80
2018,02,26,18,28,6.40
2018,02,26,18,29,6.40
2018,02,26,18,30,4.80
2018,02,26,18,31,6.40
2018,02,26,18,32,3.20
2018,02,26,18,33,8.10
2018,02,26,18,34,3.20
2018,02,26,18,35,3.20
2018,02,26,18,36,4.80
2018,02,26,18,37,6.40
2018,02,26,18,38,3.20
2018,02,26,18,39,1.60
2018,02,26,18,40,3.20
2018,02,26,18,41,3.20
2018,02,26,18,42,6.40
2018,02,26,18,43,1.60
2018,02,26,18,46,3.20
2018,02,26,18,47,6.40
2018,02,26,18,48,3.20
2018,02,26,18,54,1.60
2018,02,26,19,02,3.20
2018,02,26,19,03,1.60
2018,02,26,19,06,1.60
2018,02,26,19,51,4.80
2018,02,26,19,52,1.60
2018,02,26,20,00,3.20
2018,02,26,20,03,1.60
2018,02,26,20,13,3.20
2018,02,26,20,14,4.80
2018,02,26,20,15,3.20
2018,02,26,20,17,3.20
2018,02,26,20,30,1.60
2018,02,26,20,32,4.80
2018,02,26,20,39,1.60
2018,02,26,20,47,6.40
2018,02,26,20,48,3.20
2018,02,26,20,51,1.60
2018,02,26,20,52,3.20
2018,02,26,20,53,3.20
2018,02,26,20,55,1.60
2018,02,26,20,56,3.20
2018,02,26,20,58,8.10
2018,02,26,20,59,3.20
2018,02,26,21,00,3.20
2018,02,26,21,01,1.60
2018,02,26,21,02,3.20
2018,02,26,21,03,1.60
2018,02,26,21,07,1.60
2018,02,26,21,08,3.20
2018,02,26,21,09,1.60
2018,02,26,21,10,4.80
2018,02,26,21,11,4.80
2018,02,26,21,12,6.40
2018,02,26,21,14,3.20
2018,02,26,21,15,3.20
2018,02,26,21,16,1.60
2018,02,26,21,17,3.20
2018,02,26,21,18,6.40
2018,02,26,21,19,3.20
2018,02,26,21,22,1.60
2018,02,26,21,23,6.40
2018,02,26,21,24,3.20
2018,02,26,21,38,3.20
2018,02,26,21,59,1.60
2018,02,26,22,32,1.60
2018,02,26,22,37,1.60
2018,02,26,22,38,3.20
2018,02,26,22,39,4.80
2018,02,26,22,40,14.50
2018,02,26,22,41,8.10
2018,02,26,22,42,8.10
2018,02,26,22,43,8.10
2018,02,26,22,44,8.10
2018,02,26,22,45,8.10
2018,02,26,22,46,6.40
2018,02,26,22,47,1.60
2018,02,26,22,48,11.30
2018,02,26,22,49,9.60
2018,02,26,22,50,6.40
2018,02,26,22,51,4.80
2018,02,26,22,52,3.20
2018,02,26,22,54,6.40
2018,02,26,22,55,4.80
2018,02,26,22,56,3.20
2018,02,26,22,57,3.20
2018,02,26,22,58,6.40
2018,02,26,22,59,4.80
2018,02,26,23,00,3.20
2018,02,26,23,03,8.10
2018,02,26,23,04,4.80
2018,02,26,23,07,1.60
2018,02,26,23,08,3.20
2018,02,26,23,09,11.30
2018,02,26,23,10,8.10
2018,02,26,23,11,4.80
2018,02,26,23,12,4.80
2018,02,26,23,13,3.20
2018,02,26,23,14,3.20
2018,02,26,23,15,4.80
2018,02,26,23,17,3.20
2018,02,26,23,18,6.40
2018,02,26,23,19,3.20
2018,02,26,23,22,3.20
2018,02,26,23,23,3.20
2018,02,26,23,24,3.20
2018,02,26,23,27,3.20
2018,02,26,23,28,4.80
2018,02,26,23,29,3.20
2018,02,26,23,31,3.20
2018,02,26,23,32,4.80
2018,02,26,23,35,1.60
2018,02,26,23,41,3.20
2018,02,26,23,42,3.20
2018,02,26,23,45,3.20
2018,02,26,23,48,1.60
2018,02,26,23,50,4.80
2018,02,26,23,51,3.20
2018,02,26,23,52,3.20
2018,02,26,23,54,1.60
2018,02,26,23,55,4.80
2018,02,26,23,57,3.20
